Location: Asheville, NC
(35.6000°N, 82.5500°W)
Time: 12:03:02

XW-2C - Pass Details

Date: 13 March 2018
Orbit: 511 x 530 km, 97.5° (Epoch: 24 March)

Event Time Altitude Azimuth Distance (km) Brightness Sun altitude
Rises 06:43:31 0° 29° (NNE) 2,660 ? -13.1°
Reaches altitude 10° 06:46:05 10° 47° (NE) 1,770 ? -12.5°
Maximum altitude 06:48:54 20° 95° (E) 1,275 ? -12.0°
Drops below altitude 10° 06:51:42 10° 143° (SE) 1,766 ? -11.4°
Sets 06:54:15 0° 161° (SSE) 2,651 ? -10.9°
